Погода Бельцы

Погода Бельцы : погода сейчас, прогноз погоды и архив. Всё, что Вы хотите узнать о погоде Бельцы!

Поиск расширенной информации на нашем сайте:

Другие новости

Новости СМИ2

Главная страница сайта

Новости сайта

03.07.2017

Напоминаем, что на нашем специализированном сайте Метеоцентр.Азия вы можете получить высокодетализированные автоматические прогнозы погоды по пунктам России, СНГ и мира в авиационном формате (включающие направление и скорость ветра, видимость, явления погоды, количество и форму облачности, нижнюю и верхнюю границу облачности).


Погода Бельцы - сегодня

Время (UTC), дата Ветер
(°,м/с) 
Видим.   Явления Облачность Т
(°С)
Тd
(°С)
f(%) Тe
(°С)
Pmin
(гПа)
dP
(гПа)
Po
(мм)
O2
(г/м3)
Тmin Tmax R s Состояние
почвы
03 18.09.17 тихо ()   10 км    8/6 600 м кучево-дожд., средняя 
[Cb cap|Ac trans]
+19.2 +9.4 53 +20  1011.4  0.1  745  279  +17.9         
06 18.09.17 230 (ЮЗ) 10 км    8/8 300 м кучево-дожд. 
[Cb cap]
+21.5 +8.1 42 +22  1013.5  2.2  746  277  +17.6         
09 18.09.17 260 (З) 10 км    8/4 600 м кучево-дожд., средняя 
[Cb cap|Ac trans]
+23.8 +4.7 29 +24  1014.6  1.2  747  276           
12 18.09.17 290 (З) 10 км    6/3 600 м кучево-дожд., средняя, верхняя 
[Cb cap|Ac trans|Ci fib]
+24.7 +2.8 24 +25  1014.6  747  276           
15 18.09.17 310 (СЗ) 10 км    8/4 600 м кучево-дожд., средняя, верхняя 
[Cb cap|Ac trans|Ci fib]
+22.4 +3.5 29 +22  1015.1  0.4  748  278           
18 18.09.17 010 (С) 10 км    4/0 верхняя 
[Ci fib]
+17.8 +4.4 41 +19  1016.8  1.4  749  283    +25.3       
21 18.09.17 320 (СЗ) 10 км    8/0 верхняя 
[Cs]
+15 +4.4 49 +16  1017.9  0.9  749  286           
00 19.09.17 тихо ()   10 км    8/3 600 м кучево-дожд., средняя 
[Cb cap|Ac trans]
+14.9 +5.4 53 +15  1018.9  750  286           
03 19.09.17 тихо ()   10 км    8/4 600 м кучево-дожд., средняя, верхняя 
[Cb cap|Ac trans|Ci fib]
+12.9 +5.3 60 +13  1019.2  0.1  750  288           
06 19.09.17 тихо ()   10 км    8/3 630 м кучево-дожд., верхняя 
[Cb cap|Cs]
+14.7 +5.8 55 +15  1019.6  0.5  751  286  +12.6         
09 19.09.17 080 (В) 10 км    9/6 600 м кучево-дожд., средняя 
[Cb cap|Ac trans]
+18.4 +4.6 40 +20  1018.7  -0.6  750  282           
12 19.09.17 030 (СВ) 10 км    10/6 600 м кучево-дожд., средняя 
[Cb cap|Ac trans]
+19.4 +4 36 +21  1017.5  -1.1  749  281           
15 19.09.17 340 (С) 10 км    8/4 600 м кучево-дожд., средняя, верхняя 
[Cb cap|Ac trans|Ci fib]
+17.6 +7.1 50 +18  1015.8  -1.8  748  282           
18 19.09.17 010 (С) 10 км    8/8 600 м кучево-дожд. 
[Cb cap]
+16 +7 55 +17  1015.9  748  284    +21.5       
21 19.09.17 030 (СВ) 10 км    9/8 600 м кучево-дожд., средняя 
[Cb cap|Ac trans]
+16 +6.2 52 +17  1015  -0.9  747  283           
00 20.09.17 тихо ()   10 км    9/5 600 м кучево-дожд., средняя 
[Cb cap|Ac trans]
+15.5 +5.4 51 +16  1014  -1  746  284           
03 20.09.17 020 (С) 10 км    9/9 600 м кучево-дожд. 
[Cb cap]
+15.9 +4.6 47 +17  1012.3  -1.7  745  283  +15.2         
06 20.09.17 050 (СВ) 10 км    4/0 360 м верхняя 
[Ci fib]
+17.9 +5.2 43 +19  1012.3  0.2  745  281  +15.2         
09 20.09.17 090 (В) 10 км    6/0 средняя, верхняя 
[Ac trans|Cs]
+23 +5.9 33 +23  1011.4  -0.6  745  276           
12 20.09.17 300 (СЗ) 10 км    9/6 600 м кучево-дожд., средняя 
[Cb cap|Ac trans]
+20.8 +7.4 42 +21  1011  -0.5  745  278           
15 20.09.17 тихо ()   10 км  гроза без осадков{ливн. осадки}  8/8 600 м кучево-дожд. 
[Cb cap]
+18.6 +11.4 63 +22  1010.1  -1  744  278           
18 20.09.17 290 (З) 10 км  {гроза, ливн. осадки}  8/8 600 м кучево-дожд. 
[Cb cap]
+16.4 +11.8 74 +22  1008.8  -1.4  743  280    +2.3  0.0     
21 20.09.17 210 (ЮЗ) 3{14}  10 км  зарница  9/6 600 м кучево-дожд., средняя 
[Cb cap|Ac trans]
+16.1 +13 82 +22  1009.7  0.8  743  280           
00 21.09.17 030 (СВ) 1{16}  10 км  {ливн. осадки}  4/0 верхняя 
[Ci fib]
+14.8 +13.3 91 +22  1008.6  -1.1  743  281           
03 21.09.17 050 (СВ) 10 км    9/6 600 м кучево-дожд., средняя 
[Cb cap|Ac trans]
+15.5 +13.3 87 +23  1007.9  -0.7  742  280           
Время (UTC), дата Ветер
(°,м/с) 
Видим.   Явления Облачность Т
(°С)
Тd
(°С)
f(%) Тe
(°С)
Pmin
(гПа)
dP
(гПа)
Po
(мм)
O2
(г/м3)
Тmin Tmax R s Состояние
почвы

Для получения пояснительной информации подведите курсор к названию столбца.

ПОГОДА Бельцы - архив

Всё, что Вы хотите узнать о погоде Бельцы - удобно и подробно!

Выберите нужную дату (начиная с 1 января 2015* года) и нажмите кнопку "Найти".
Будут отображены архивные сводки погоды по пункту Бельцы, начиная с указанной даты.


Отображать данные в формате CSV (для использования в таблицах Excel)


Внимание! Наш архив погоды предназначен исключительно для личного некоммерческого использования в познавательных целях. Если Вам необходимы официальные справки о состоянии погоды (для производственных, юридических, коммерческих и т.п. целей), обращайтесь в органы Росгидромета.

*Примечание: данная дата относится к архиву по метеостанциям СССР (Россия, СНГ, Балтия).
Архив по метеостанциям Зарубежной Европы и Азии (кроме Китая) хранится 10 дней, по другим регионам земного шара (Китай, Африка, Америка, Австралия, Океания) - 1 день.

Бельцы - район местоположения метеостанции


Название, широта, долгота, высота метеостанции:
Бельцы 47.8°ш. 27.9°д. 102 м над ур. моря [Молдавия]

Дополнительная информация

В oтличие oт бoльшинства пoгoдных сайтoв мы публикуем пoдрoбную метеoинфoрмацию в детальнoм прoфессиoнальнoм фoрмате.

Характеристики температуры и влажнoсти вoздуха измеряются на высoте 2 м в тени вдали oт зданий и деревьев.
Скoрoсть ветра измеряется на высoте 10 м (на урoвне рoста челoвека скoрoсть ветра ниже в 1.5-2 раза). Если метеoстанция нахoдится в гoрoде или в лесу, тo скoрoсть ветра занижена на 2-4 м/с пo сравнению с oткрытым местoм. Скoрoсть ветра над акватoриями крупных рек и oзёр, а также на вершинах хoлмoв на 2-5 м/с выше, чем в oбычных услoвиях.
Атмoсфернoе давление в разных тoчках местнoсти мoжет значительнo oтличаться oт давления на метеoстанции, в зависимoсти oт услoвий рельефа (при пoдъёме на 10 м давление пoнижается примернo на 1 мм рт.ст.).